Wind_Speed
14 15 16 17 17 16 15 15 15 15 15 16 15 16 18 19 19 20 19 18 14 13 15 16 17 17 17 17 13 12 12 12 13 18 21 20 17 14 14 15 15 16 17
16 17 18 19 18 17 16 15 15 15 15 17 18 19 20 21 20 20 21 20 19 16 16 16 17 18 18 18 16 14 14 14 14 15 18 19 17 14 13 14 16 17 17
19 19 19 20 21 20 19 19 19 18 16 17 18 19 21 21 21 20 21 21 21 20 19 19 19 19 20 19 18 17 16 17 16 15 15 17 16 17 18 19 20 20 18
20 20 20 22 23 23 22 20 20 20 18 18 19 20 20 21 21 21 21 22 22 22 22 21 21 20 20 20 20 20 20 18 18 17 17 16 16 19 20 22 24 24 22
22 23 24 25 25 24 23 21 21 22 21 21 21 20 19 19 21 21 22 22 22 23 23 22 22 22 21 20 20 20 21 20 19 20 18 18 19 23 24 23 24 25 25
25 26 27 27 26 24 23 24 25 26 24 23 21 20 19 19 20 21 22 23 22 23 23 23 22 23 22 21 20 21 21 21 20 20 19 20 23 26 26 25 24 24 25
29 28 29 28 26 25 25 26 28 28 26 23 21 20 20 21 22 22 21 21 21 22 23 24 23 23 22 20 19 20 21 21 22 21 19 21 23 23 23 23 25 26 27
31 30 30 28 28 28 28 28 29 27 24 21 21 21 22 22 22 23 21 20 21 23 24 24 23 23 23 21 19 20 22 22 22 21 20 23 25 24 23 24 26 28 29
34 31 30 28 27 28 28 28 27 26 24 23 22 21 21 21 22 22 21 22 23 24 24 24 24 23 23 21 19 20 21 21 21 20 19 21 23 24 24 23 26 28 31
33 30 28 27 27 28 28 28 27 26 26 26 25 23 22 22 21 21 21 22 23 24 23 23 22 22 22 20 19 20 20 21 22 20 20 20 21 22 24 27 29 31 31
28 27 27 28 29 29 29 28 28 28 29 29 27 25 24 23 21 21 21 21 22 22 22 21 22 22 21 19 19 20 21 22 22 21 22 23 23 24 25 27 30 30 27
30 29 29 30 31 31 31 32 32 33 33 31 30 28 26 24 23 21 21 21 20 19 21 21 22 20 19 19 18 19 20 22 21 22 23 24 25 25 24 23 22 19 13
34 32 33 33 34 34 35 36 36 35 34 33 33 31 29 27 26 23 21 20 18 18 20 21 20 18 18 18 18 16 17 19 20 21 22 22 21 20 18 14 10 7 5
35 34 35 36 37 38 38 38 38 36 34 34 34 33 30 29 28 25 21 19 17 17 19 21 21 20 17 16 16 14 15 16 18 21 21 20 18 15 10 5 3 2 4
36 37 38 38 38 38 38 38 38 37 34 33 33 32 30 29 29 26 22 19 17 16 16 16 17 16 15 15 15 13 12 13 15 15 15 14 11 7 4 3 3 4 5
32 33 33 34 34 34 35 35 36 35 34 33 33 31 29 29 29 28 24 20 17 15 14 15 16 15 15 14 12 10 9 8 8 8 9 8 7 6 5 4 4 5 7
28 29 29 29 30 31 33 34 34 33 33 33 31 30 30 30 29 28 26 22 19 19 18 17 17 16 14 12 9 8 6 4 6 8 9 9 9 8 7 7 7 8 9
28 29 29 29 29 29 30 30 30 31 31 31 29 29 30 31 30 28 26 24 21 21 21 20 18 17 15 12 10 8 8 7 8 10 10 10 9 9 9 10 11 11 12
32 32 32 32 31 29 28 28 28 29 29 30 29 28 30 31 31 29 28 26 24 23 23 21 19 18 17 15 12 11 11 11 11 12 13 14 15 15 14 14 15 15 15
34 34 34 34 32 30 28 28 28 28 28 28 28 27 28 30 30 29 28 27 25 25 24 22 20 20 19 17 15 14 14 15 15 16 17 18 20 21 20 19 17 17 17
36 37 36 34 32 32 31 29 28 28 26 25 24 24 26 27 28 28 28 26 24 24 24 24 23 22 20 19 17 16 16 17 18 18 19 21 23 24 24 23 21 18 18
38 37 36 35 34 33 32 30 29 28 28 27 25 24 25 26 26 26 27 26 24 22 22 23 23 23 22 21 20 18 18 18 18 19 21 23 25 25 25 25 25 24 21
39 37 36 35 35 34 33 32 31 29 29 29 28 27 27 28 28 28 29 28 28 26 26 26 23 21 21 21 21 20 20 20 20 21 22 22 22 24 26 26 27 27 25
40 38 36 34 33 33 33 32 30 28 28 28 27 27 27 28 28 28 29 29 29 29 30 30 30 27 25 24 25 26 25 24 24 23 23 22 22 23 26 28 27 27 27
40 39 36 34 33 33 33 33 32 30 30 29 28 28 28 27 27 28 28 29 29 29 31 32 32 31 29 28 29 30 30 29 28 26 26 25 24 25 26 27 26 26 27
37 38 38 37 37 37 37 36 36 35 33 32 31 31 31 30 29 29 29 29 30 30 31 32 33 32 31 31 31 31 31 31 31 29 28 27 26 27 27 27 27 26 27
Wind_Direction
287 292 297 296 293 293 294 296 299 305 305 305 310 312 306 298 293 290 287 283 280 278 282 285 286 284 282 284 287 284 271 266 264 262 259 261 272 267 253 245 247 255 257
293 296 299 298 294 292 289 288 292 301 303 304 311 316 313 307 297 291 288 281 276 276 280 284 282 280 278 277 278 281 274 265 260 259 258 258 258 254 256 257 260 261 261
296 298 297 296 296 294 291 290 292 296 298 299 305 310 311 310 304 293 288 280 275 275 279 284 282 276 273 274 270 271 275 267 256 253 254 253 254 256 259 264 265 265 265
291 290 287 287 288 290 290 289 290 290 294 296 299 303 306 309 307 298 291 285 280 278 281 286 283 274 269 269 268 268 271 270 261 259 250 246 251 262 266 266 264 265 266
283 281 280 281 284 285 286 287 288 290 291 292 294 298 300 303 304 301 294 290 287 285 287 290 284 273 266 264 265 267 269 271 270 266 254 245 250 257 264 266 262 263 264
283 279 277 278 279 280 280 284 287 288 289 290 292 294 295 297 299 299 295 294 292 289 289 290 285 275 267 262 262 261 265 270 275 274 260 250 256 254 259 260 258 261 264
281 279 278 278 278 279 281 284 287 287 288 288 290 292 293 296 298 299 296 293 291 290 289 288 286 278 268 261 260 260 261 270 278 278 267 257 252 257 258 256 256 261 265
277 275 274 274 277 280 283 286 287 287 287 288 292 295 296 298 299 299 299 296 292 290 288 286 286 279 270 264 262 260 262 271 274 277 269 256 253 258 261 257 254 260 264
272 269 270 272 275 279 282 285 287 286 286 289 293 295 295 297 298 298 299 298 296 293 288 284 284 280 274 270 268 263 262 266 274 272 266 259 257 260 260 258 258 259 259
268 263 268 271 272 275 279 283 286 287 288 290 293 292 290 291 293 296 297 296 294 293 291 286 284 280 275 275 274 269 263 265 270 265 261 262 265 266 264 263 261 256 253
262 263 267 269 269 271 276 280 282 284 287 289 290 289 287 286 287 293 298 297 295 295 292 288 287 281 276 276 280 276 266 265 265 260 259 265 269 271 273 271 262 253 246
265 266 267 267 267 270 275 278 279 281 282 284 285 285 283 281 280 289 297 297 295 292 289 289 287 281 278 279 282 279 270 265 259 259 262 269 272 274 276 271 257 240 229
264 265 265 265 267 271 275 278 279 278 277 277 278 279 277 274 274 281 292 294 292 288 285 286 284 284 287 290 287 283 276 268 259 260 266 273 278 281 274 265 244 225 214
262 262 263 264 268 273 277 279 279 277 275 273 273 273 270 266 266 273 283 289 288 284 284 285 281 282 289 293 287 284 278 268 261 261 266 275 283 279 262 237 206 212 229
260 262 263 266 270 274 277 279 278 277 275 272 270 268 262 259 259 265 274 280 282 282 283 285 283 284 292 288 285 283 280 268 259 260 266 271 267 249 209 177 195 224 240
264 267 268 269 271 273 273 273 273 275 275 273 269 263 255 251 254 260 266 271 272 274 278 281 283 290 294 288 282 277 286 270 255 251 245 235 214 195 189 195 214 232 251
267 268 269 269 270 270 270 269 269 271 272 270 267 258 249 247 251 257 262 265 265 267 272 277 281 286 287 278 268 267 266 246 225 222 221 211 205 208 218 227 239 250 263
267 268 267 267 268 270 271 269 268 269 268 265 263 255 246 245 250 253 258 263 261 261 264 267 274 273 272 263 256 251 243 235 226 225 227 226 223 221 231 246 255 258 263
268 269 267 267 267 268 268 268 268 266 265 262 259 253 245 244 248 250 256 260 259 257 258 259 262 257 256 251 254 252 242 236 236 235 236 236 234 234 240 253 261 263 268
267 267 266 267 266 264 267 269 268 267 267 261 256 250 245 244 247 250 254 256 255 253 253 252 250 247 246 246 250 251 242 238 239 241 242 242 240 240 243 250 259 265 270
266 266 265 263 261 262 264 268 268 265 262 256 251 246 242 242 244 246 248 247 247 249 248 245 242 240 242 245 249 250 243 241 243 246 247 246 244 243 244 245 249 259 265
266 266 264 259 257 258 260 263 264 263 257 251 249 245 239 237 240 243 243 244 246 249 246 242 239 238 241 244 247 249 246 246 247 251 256 257 255 250 249 249 250 255 263
263 264 263 261 257 256 258 259 260 259 255 251 248 246 242 241 243 246 247 248 248 248 245 241 239 236 237 241 245 249 248 250 253 257 261 262 261 257 257 258 259 257 258
259 261 261 261 260 258 258 257 256 252 250 249 248 248 247 246 247 249 249 249 248 247 246 243 242 243 243 244 246 248 250 252 254 259 260 260 259 255 256 258 259 258 255
256 256 257 258 258 258 256 254 252 250 249 248 247 247 247 246 247 247 247 246 246 246 244 242 243 243 245 246 246 247 249 252 254 257 259 259 257 255 254 252 250 253 256
259 256 256 255 256 255 254 253 252 252 251 250 248 248 248 248 248 247 246 245 246 247 247 246 245 245 245 245 247 247 249 251 253 253 254 257 258 256 253 251 250 254 259
Height
5907 5907 5906 5905 5904 5903 5901 5900 5901 5900 5899 5898 5896 5896 5895 5893 5892 5890 5888 5886 5885 5883 5882 5880 5879 5877 5875 5874 5873 5872 5871 5871 5871 5871 5871 5871 5871 5871 5870 5871 5872 5872 5873
5904 5904 5903 5902 5901 5900 5899 5898 5898 5897 5896 5895 5893 5892 5891 5889 5888 5886 5884 5882 5881 5880 5878 5877 5875 5873 5871 5870 5870 5869 5868 5868 5867 5867 5867 5868 5868 5868 5868 5869 5869 5869 5869
5901 5900 5900 5898 5897 5896 5895 5894 5894 5893 5892 5891 5889 5888 5886 5885 5884 5883 5880 5878 5877 5876 5874 5873 5870 5869 5867 5866 5866 5865 5865 5864 5863 5863 5863 5864 5864 5865 5865 5865 5865 5866 5866
5896 5896 5896 5895 5894 5892 5891 5890 5890 5889 5888 5887 5885 5883 5882 5881 5880 5879 5877 5875 5873 5871 5870 5868 5866 5864 5863 5862 5862 5861 5860 5859 5858 5858 5859 5859 5859 5860 5861 5861 5861 5861 5862
5892 5892 5891 5891 5890 5888 5887 5886 5886 5885 5884 5882 5881 5879 5877 5876 5875 5875 5873 5872 5870 5867 5865 5864 5862 5861 5859 5858 5858 5857 5856 5854 5853 5852 5853 5854 5854 5854 5856 5856 5856 5857 5857
5887 5887 5886 5886 5885 5884 5883 5882 5882 5881 5880 5879 5876 5874 5873 5872 5871 5870 5869 5868 5866 5864 5861 5859 5858 5857 5855 5854 5854 5853 5852 5850 5849 5845 5846 5848 5847 5847 5850 5851 5852 5852 5853
5881 5880 5880 5880 5879 5879 5878 5878 5877 5876 5875 5874 5872 5870 5869 5869 5867 5866 5864 5863 5861 5859 5857 5855 5853 5852 5851 5850 5849 5848 5848 5848 5846 5841 5840 5841 5840 5842 5845 5846 5847 5848 5848
5873 5873 5873 5873 5872 5872 5872 5872 5871 5871 5870 5869 5867 5866 5865 5865 5863 5861 5859 5858 5856 5855 5853 5851 5849 5847 5846 5846 5844 5844 5844 5844 5842 5840 5839 5838 5838 5840 5841 5841 5842 5843 5843
5866 5866 5866 5867 5867 5866 5866 5865 5865 5864 5864 5863 5862 5861 5860 5859 5858 5856 5855 5853 5851 5850 5848 5846 5844 5843 5842 5841 5840 5838 5839 5839 5838 5837 5836 5835 5835 5836 5836 5837 5837 5838 5837
5856 5858 5858 5859 5860 5860 5859 5859 5859 5858 5858 5857 5856 5855 5855 5854 5853 5851 5850 5848 5846 5845 5843 5841 5839 5838 5838 5837 5835 5834 5834 5834 5833 5832 5832 5831 5831 5831 5831 5831 5831 5831 5831
5849 5850 5851 5852 5853 5853 5853 5853 5853 5852 5851 5850 5849 5849 5849 5848 5847 5846 5844 5842 5840 5839 5838 5836 5834 5833 5833 5832 5831 5830 5829 5829 5828 5827 5827 5827 5827 5827 5826 5825 5825 5824 5825
5842 5843 5844 5844 5845 5845 5846 5846 5846 5846 5845 5844 5843 5843 5842 5842 5842 5840 5838 5836 5834 5834 5833 5831 5830 5829 5828 5827 5827 5825 5824 5824 5823 5823 5823 5823 5823 5822 5821 5820 5819 5820 5821
5834 5836 5836 5836 5836 5837 5837 5837 5837 5838 5838 5837 5837 5836 5836 5836 5836 5835 5833 5831 5829 5829 5828 5827 5826 5825 5824 5823 5822 5820 5819 5819 5819 5819 5819 5819 5818 5818 5817 5817 5817 5818 5820
5826 5827 5828 5828 5828 5828 5829 5828 5828 5828 5829 5829 5829 5828 5828 5829 5830 5829 5827 5826 5825 5824 5824 5822 5822 5821 5820 5818 5817 5816 5815 5815 5815 5816 5816 5816 5815 5815 5816 5816 5817 5819 5821
5817 5818 5819 5820 5820 5820 5819 5819 5819 5820 5820 5820 5820 5820 5820 5820 5822 5822 5821 5821 5820 5820 5820 5818 5817 5817 5816 5815 5814 5813 5812 5812 5812 5812 5813 5813 5813 5814 5815 5817 5818 5820 5822
5809 5810 5810 5810 5811 5810 5810 5810 5810 5810 5811 5811 5811 5812 5812 5812 5814 5814 5815 5815 5815 5815 5815 5814 5814 5813 5812 5812 5811 5810 5810 5809 5809 5810 5811 5812 5813 5815 5816 5817 5819 5820 5821
5801 5801 5802 5802 5802 5802 5802 5802 5802 5802 5802 5802 5802 5803 5804 5805 5806 5807 5808 5809 5810 5810 5810 5810 5810 5810 5809 5809 5808 5808 5808 5807 5807 5808 5810 5811 5812 5814 5816 5817 5818 5819 5820
5792 5793 5794 5794 5794 5794 5794 5794 5794 5794 5793 5793 5794 5795 5797 5797 5799 5800 5802 5803 5804 5804 5805 5805 5805 5805 5806 5806 5806 5805 5805 5806 5806 5807 5809 5810 5812 5813 5815 5816 5816 5817 5818
5783 5784 5785 5786 5786 5786 5786 5786 5785 5785 5784 5784 5785 5787 5789 5790 5792 5793 5795 5796 5797 5798 5799 5799 5800 5801 5801 5802 5803 5802 5803 5804 5805 5806 5807 5808 5810 5811 5812 5813 5814 5815 5815
5774 5775 5776 5777 5778 5778 5778 5778 5777 5777 5776 5776 5777 5778 5780 5783 5785 5787 5788 5789 5790 5791 5792 5793 5795 5796 5796 5797 5798 5798 5799 5800 5802 5803 5804 5804 5805 5806 5808 5809 5811 5812 5812
5766 5767 5767 5768 5768 5768 5769 5770 5769 5768 5768 5769 5769 5770 5772 5775 5778 5780 5781 5782 5783 5784 5785 5787 5788 5789 5791 5793 5794 5794 5795 5796 5798 5799 5799 5800 5800 5801 5803 5804 5806 5807 5808
5757 5757 5758 5758 5758 5759 5760 5761 5761 5761 5761 5762 5763 5764 5765 5768 5770 5772 5774 5775 5776 5778 5779 5780 5781 5783 5785 5787 5789 5790 5791 5793 5794 5795 5795 5795 5795 5796 5797 5799 5800 5802 5803
5746 5748 5749 5749 5749 5750 5751 5752 5753 5754 5755 5756 5756 5758 5759 5761 5763 5765 5767 5769 5770 5772 5774 5775 5775 5776 5779 5781 5784 5786 5787 5788 5789 5790 5790 5790 5790 5791 5792 5793 5795 5796 5798
5736 5738 5739 5740 5740 5741 5742 5743 5744 5746 5747 5749 5750 5751 5752 5754 5755 5757 5759 5761 5763 5765 5767 5768 5770 5771 5773 5775 5777 5779 5780 5782 5783 5784 5784 5784 5784 5785 5787 5787 5789 5790 5791
5726 5728 5729 5730 5731 5732 5733 5735 5737 5738 5740 5741 5743 5744 5746 5747 5748 5750 5752 5753 5754 5756 5758 5760 5762 5764 5766 5768 5769 5771 5773 5775 5777 5778 5778 5778 5778 5779 5780 5781 5782 5783 5785
5714 5716 5719 5721 5721 5722 5724 5726 5728 5730 5732 5733 5735 5737 5739 5740 5742 5743 5745 5746 5747 5748 5750 5752 5754 5756 5758 5760 5762 5763 5765 5767 5769 5770 5771 5772 5773 5773 5774 5775 5776 5777 5778